This is the latest recevied weather packets stored in our database for station/object ED2YAA-10. If no packets are shown the sender has not sent any weather packets the latest 10 day(s).
| Time | Temp. | Humidity | Pressure | Rain* | Wind** | Luminosity | Snow |
|---|---|---|---|---|---|---|---|
| 1777714899 | 27.22° C | 36% | 930.2 hPa | - | - | - | - |
| 1777713999 | 26.67° C | 37% | 930.5 hPa | - | - | - | - |
| 1777713099 | 26.67° C | 36% | 930.5 hPa | - | - | - | - |
| 1777712203 | 26.11° C | 36% | 930.5 hPa | - | - | - | - |
| 1777711299 | 26.11° C | 36% | 930.1 hPa | - | - | - | - |
| 1777710398 | 25.56° C | 36% | 930 hPa | - | - | - | - |
| 1777709497 | 25.56° C | 35% | 930.2 hPa | - | - | - | - |
| 1777708598 | 25.56° C | 35% | 930.2 hPa | - | - | - | - |
| 1777707697 | 25° C | 36% | 930 hPa | - | - | - | - |
| 1777706799 | 25° C | 35% | 929.8 hPa | - | - | - | - |
| 1777705896 | 25° C | 35% | 929.6 hPa | - | - | - | - |
| 1777705001 | 25° C | 35% | 929.6 hPa | - | - | - | - |
| 1777704101 | 25° C | 34% | 929.6 hPa | - | - | - | - |
| 1777703200 | 25° C | 34% | 929.4 hPa | - | - | - | - |
| 1777702300 | 25° C | 34% | 929.4 hPa | - | - | - | - |
| 1777701400 | 25° C | 33% | 929.4 hPa | - | - | - | - |
| 1777700500 | 25° C | 34% | 929.4 hPa | - | - | - | - |
| 1777699600 | 25.56° C | 32% | 929.5 hPa | - | - | - | - |
| 1777698700 | 25.56° C | 33% | 929.4 hPa | - | - | - | - |
| 1777697800 | 25.56° C | 33% | 929.7 hPa | - | - | - | - |
| 1777696900 | 25.56° C | 33% | 929.6 hPa | - | - | - | - |
| 1777696000 | 25.56° C | 32% | 929.6 hPa | - | - | - | - |
| 1777695100 | 25.56° C | 32% | 929.8 hPa | - | - | - | - |
| 1777694200 | 26.11° C | 31% | 929.8 hPa | - | - | - | - |
| 1777693300 | 26.11° C | 31% | 930 hPa | - | - | - | - |
* Rain since midnight (hover to see other rain measurements)
** Current wind speed in m/s (hover to see current wind gust speed)